Theta_e
315 315 313 314 314 314 315 313 314 313 314 314 313 309 306 305 306 310 312 308 308 321 322 325 325 324 322 328 340 352 363 365 363 365 360 356 355 354 352 348 346 347 346 346 348
315 315 315 315 315 315 315 315 314 315 314 313 311 310 306 306 312 317 308 308 309 325 327 328 327 322 320 328 335 352 361 363 358 357 359 357 353 356 353 350 350 348 348 349 349
314 314 314 314 315 315 315 315 314 315 315 314 311 309 306 308 318 313 321 308 312 323 321 320 322 321 324 327 346 356 363 356 356 354 355 356 355 356 351 354 349 351 351 348 348
315 314 314 314 314 315 314 315 315 314 314 314 312 307 307 314 312 325 324 315 312 316 317 318 320 323 328 333 352 354 350 356 357 354 356 356 355 359 353 352 347 348 348 348 348
314 314 314 313 313 314 314 314 314 314 314 313 312 309 315 317 311 312 318 315 310 315 318 316 325 331 335 337 346 350 353 356 357 357 354 354 357 357 353 352 347 346 346 347 347
313 313 313 313 313 313 313 313 313 313 313 312 311 311 316 307 310 323 315 311 315 319 317 318 325 332 337 342 349 352 355 352 358 356 354 355 355 354 354 351 347 347 346 346 345
314 314 313 313 312 312 311 310 309 311 311 313 312 316 318 309 322 322 314 315 317 316 314 317 328 336 334 335 347 355 358 357 359 356 356 353 356 355 351 348 348 347 347 345 344
313 313 311 310 310 310 310 309 310 311 313 316 313 317 312 310 317 319 319 317 316 316 318 318 325 331 334 331 332 356 354 361 361 356 355 354 362 352 350 349 346 346 346 345 342
313 313 309 309 310 309 312 312 310 310 314 316 315 318 313 315 320 320 318 318 315 314 313 321 327 327 326 322 322 339 354 358 363 356 356 356 359 351 350 352 345 345 345 344 346
314 313 310 309 309 310 311 317 315 318 318 315 316 317 317 322 321 318 317 319 314 313 316 319 321 322 317 319 327 329 351 358 362 360 357 358 359 350 351 350 348 343 342 343 348
314 314 313 310 309 309 309 315 316 318 318 312 315 316 321 321 321 321 321 319 317 319 322 322 322 322 322 321 323 325 328 359 358 359 357 359 359 353 352 352 346 342 343 346 346
313 313 313 313 312 311 309 311 317 317 316 317 316 318 319 320 319 322 321 317 318 321 323 319 322 319 321 322 324 326 343 359 355 353 356 358 360 356 354 352 347 345 342 344 345
313 313 313 313 313 312 312 313 315 316 315 313 319 318 318 317 319 319 319 319 320 322 323 323 322 321 323 323 323 322 325 357 359 353 351 355 358 360 356 354 353 346 339 343 343
313 313 313 313 313 313 312 314 316 316 311 316 317 319 319 317 320 321 322 321 320 322 321 321 321 323 323 324 321 321 324 341 355 350 355 348 359 353 354 354 354 349 341 343 342
313 313 313 312 313 312 316 316 317 312 323 321 321 319 317 319 321 322 321 319 320 321 319 321 322 322 323 322 319 321 325 345 350 352 347 350 352 352 347 351 354 350 348 338 341
313 313 312 312 313 315 316 317 314 314 327 324 319 320 317 318 321 320 321 319 319 320 320 319 319 319 320 321 319 323 341 344 342 345 352 348 351 357 352 352 354 352 350 344 340
313 314 313 312 313 316 315 313 318 320 321 323 321 319 318 317 319 321 321 320 319 320 319 321 322 320 319 320 318 321 338 347 350 350 348 345 354 349 351 349 352 352 350 346 342
314 315 313 311 312 313 317 316 325 327 324 320 321 316 318 318 323 322 320 320 320 320 320 323 324 321 319 319 319 319 328 337 346 345 345 348 354 351 350 348 349 349 350 351 347
314 314 313 314 317 316 313 318 320 324 321 321 317 318 320 321 323 325 323 321 320 319 321 323 324 322 320 320 320 323 324 323 332 328 341 350 348 348 352 354 352 351 351 351 349
316 316 316 316 320 316 314 318 321 321 320 319 320 317 322 324 323 325 325 325 324 321 315 320 324 323 323 322 324 321 322 327 323 333 343 352 353 351 356 358 352 349 349 349 350
315 317 318 318 320 313 318 316 322 320 321 319 319 320 321 325 325 326 327 325 324 323 319 320 320 324 322 324 327 328 326 322 322 330 339 350 352 352 346 352 351 350 347 347 347
313 316 318 319 315 313 317 320 320 321 317 317 318 319 322 323 325 326 328 326 324 323 319 318 318 324 324 321 319 325 325 323 325 333 338 345 352 350 350 347 346 344 345 343 344
314 313 319 318 317 313 317 321 321 315 316 319 319 319 319 322 323 324 325 326 323 321 316 317 318 325 324 319 318 317 319 320 320 327 340 345 354 349 347 346 345 344 343 341 340
314 312 309 307 309 314 319 319 313 315 315 315 318 317 318 318 318 323 324 323 321 319 325 318 316 322 322 321 321 318 318 320 321 325 336 343 354 352 349 347 343 342 339 337 336
313 315 312 310 311 309 310 313 315 314 313 313 321 319 318 321 322 323 320 318 319 321 318 316 318 320 321 319 321 318 318 321 323 327 333 345 352 349 345 343 340 338 337 335 334
317 317 316 316 311 310 308 312 312 312 312 315 320 321 322 324 322 322 319 317 320 320 317 312 320 319 324 321 320 318 319 322 337 343 344 347 349 344 341 337 337 337 336 334 333
319 318 317 317 307 308 308 312 315 311 312 316 318 317 317 317 315 314 313 314 314 316 316 319 315 322 324 321 319 320 318 317 336 343 344 347 343 341 340 339 337 335 335 331 329
Wind_Speed
14 14 13 13 13 13 13 12 13 12 12 13 12 11 10 11 12 8 7 10 16 11 15 15 9 5 4 2 4 3 1 4 11 8 9 4 6 2 3 16 5 2 12 19 27
15 15 15 14 14 13 13 13 13 13 13 12 12 11 10 11 11 12 15 15 14 20 20 15 6 7 2 3 3 3 1 6 2 2 12 6 8 5 9 12 15 18 20 29 27
16 16 15 15 14 13 13 13 13 13 13 12 10 10 9 8 4 8 2 20 22 22 15 11 12 6 2 3 3 4 2 4 4 14 11 12 5 3 15 9 21 22 22 23 25
17 17 17 16 16 15 14 14 14 13 12 12 10 7 6 2 3 2 6 19 25 20 13 8 4 6 3 4 3 3 1 0 7 15 11 9 10 7 7 2 17 23 24 22 18
18 17 17 16 15 15 14 14 14 13 12 10 8 4 2 0 9 4 4 24 27 19 15 7 5 4 4 2 4 1 3 2 2 7 11 11 8 6 16 12 16 21 22 19 16
18 17 16 15 15 13 12 12 13 12 10 8 3 1 2 3 5 4 12 28 24 21 13 9 8 6 3 2 5 8 10 1 2 8 11 6 7 6 9 10 19 21 20 17 16
17 16 15 15 15 14 13 11 9 9 8 5 1 3 0 11 6 5 20 21 21 20 6 12 5 3 2 2 6 8 5 2 4 9 4 13 4 6 10 15 22 19 18 17 18
17 15 14 12 12 13 12 8 6 4 5 2 3 3 7 2 5 12 12 9 14 14 4 11 6 0 3 4 2 7 3 4 5 7 5 1 5 14 7 13 19 18 16 16 14
18 15 13 12 12 11 8 7 3 3 3 4 4 3 9 8 7 18 14 5 15 11 7 6 7 5 1 2 4 4 3 4 7 8 7 3 6 17 7 11 16 17 16 13 14
19 15 13 12 11 10 7 4 3 7 8 5 4 2 6 1 5 8 18 10 5 7 3 4 2 3 2 4 4 3 2 2 7 6 13 2 4 17 6 11 9 11 15 13 16
22 18 14 14 13 13 7 1 2 0 4 8 5 5 4 6 5 6 11 7 3 4 5 4 4 5 8 5 4 4 2 6 5 4 4 2 9 16 7 8 17 7 10 15 16
22 21 18 15 16 18 5 3 4 1 7 13 11 7 10 2 3 3 18 5 4 4 3 5 5 7 6 6 4 5 3 4 7 8 3 5 9 13 8 10 13 6 11 14 13
23 22 19 19 18 9 5 8 1 10 0 7 5 4 4 9 5 4 11 5 4 4 4 5 3 6 4 2 4 3 4 6 5 7 4 7 1 10 7 4 5 6 9 15 17
20 20 21 17 5 6 9 3 19 2 4 6 2 5 4 4 2 5 12 6 1 7 5 4 5 3 3 3 6 1 6 8 15 7 4 4 3 3 3 4 20 12 9 15 15
20 20 19 14 11 3 6 21 15 4 3 11 3 1 2 7 4 3 7 4 6 5 6 6 4 4 5 7 6 7 7 11 14 4 6 3 3 2 4 5 8 16 8 11 17
26 25 22 10 8 10 11 21 3 5 3 7 5 6 3 2 2 2 3 5 3 1 1 6 3 5 7 5 8 3 6 11 5 3 0 7 4 3 6 11 10 9 8 8 14
30 22 17 8 4 6 18 4 5 3 4 7 4 5 3 2 3 3 5 4 4 4 4 6 5 5 5 3 1 4 7 2 3 1 5 8 4 3 6 6 16 14 12 11 14
28 20 11 14 7 8 3 5 6 2 3 5 5 5 4 5 4 7 6 2 1 3 2 2 5 7 4 9 7 7 10 5 5 4 1 4 4 1 6 9 9 10 10 8 8
26 7 5 4 6 5 5 5 4 3 4 4 5 6 6 5 5 4 4 2 4 2 1 4 5 3 5 5 10 4 4 6 6 3 4 2 3 2 3 7 9 8 7 6 3
17 6 4 3 14 7 5 3 4 4 3 2 3 4 3 7 4 4 4 3 2 2 4 4 3 2 4 2 3 8 7 4 3 5 3 1 0 3 2 8 10 8 8 6 3
5 3 3 11 6 5 3 5 5 7 4 2 2 3 3 1 4 3 1 3 1 6 3 1 3 5 1 2 6 3 2 6 5 4 5 4 3 3 5 7 9 8 7 6 5
4 2 7 16 4 2 3 4 3 4 3 3 3 3 1 1 2 3 1 3 4 2 2 1 2 1 5 4 4 2 7 5 5 2 3 4 2 4 10 9 10 9 7 8 7
1 2 3 4 1 2 2 2 2 2 3 2 2 2 2 3 3 3 3 4 6 3 3 3 2 2 8 6 7 6 4 4 6 4 4 5 3 5 7 7 7 10 8 8 8
3 2 4 4 1 4 4 1 2 5 4 4 3 3 4 2 4 2 1 3 6 2 5 6 2 4 4 5 2 4 3 2 5 4 6 3 11 7 9 10 7 7 9 9 7
3 1 2 2 4 6 4 2 3 5 4 9 6 1 3 2 2 4 4 6 6 9 3 4 3 2 3 2 2 3 4 5 4 5 6 11 19 19 15 13 9 10 9 12 10
2 3 4 1 1 5 4 4 3 3 4 4 5 6 4 4 2 1 1 2 2 7 5 3 3 1 4 10 7 5 12 6 3 7 7 18 8 8 11 10 10 11 11 14 12
4 2 3 5 3 4 1 3 1 5 3 2 2 3 4 2 4 5 4 2 2 6 4 3 3 3 2 5 3 7 10 5 3 2 22 15 8 17 14 14 13 15 14 14 11
Wind_Direction
332 331 328 326 324 324 322 322 321 319 319 320 320 315 315 317 311 278 237 220 204 192 185 167 178 193 189 201 223 127 291 167 178 166 152 233 131 44 303 127 127 133 129 138 137
329 327 324 321 320 319 317 317 317 318 317 317 315 318 318 324 310 250 244 204 168 155 155 155 169 162 169 218 208 121 235 208 150 202 153 173 130 125 130 131 103 104 116 133 138
329 325 321 319 316 314 314 313 312 313 314 314 315 316 325 329 297 244 49 187 170 167 154 173 145 152 193 227 176 145 193 346 269 218 158 159 131 75 147 132 143 141 144 146 147
329 325 321 319 317 314 313 310 309 308 310 310 313 317 330 346 215 192 303 182 173 174 175 153 130 151 200 219 148 141 302 66 314 181 178 164 136 128 149 64 144 147 150 152 156
329 326 322 318 313 311 310 308 305 304 304 306 312 328 54 24 253 282 333 165 170 175 172 155 139 156 183 234 102 152 203 141 271 207 162 150 174 141 155 236 145 147 153 160 161
332 328 324 320 314 309 305 301 302 299 298 299 308 14 113 264 304 291 157 155 169 172 175 168 168 196 264 248 205 167 169 132 305 183 162 145 143 114 162 185 157 157 157 165 164
331 330 328 324 321 315 309 307 308 296 292 290 185 129 93 237 343 179 167 169 176 175 153 199 152 112 334 298 254 155 125 130 215 163 140 120 123 130 150 155 161 163 163 166 170
337 334 334 338 338 330 327 332 330 300 280 274 160 148 246 282 204 163 172 180 194 197 159 196 172 108 207 282 300 139 58 166 156 156 169 41 161 146 167 167 167 169 163 170 170
347 340 342 355 359 356 2 350 19 45 180 169 146 137 269 302 222 221 211 179 184 197 216 138 164 201 251 121 27 47 178 197 140 211 179 110 122 170 172 155 164 169 166 172 153
352 350 345 347 351 350 341 349 93 87 97 144 273 312 265 256 223 210 206 174 136 135 178 167 97 130 53 88 187 102 114 195 147 197 210 217 170 176 179 159 187 159 166 166 154
352 353 351 344 338 329 339 214 24 335 219 198 202 235 266 318 238 178 165 171 110 117 151 188 121 189 205 172 135 105 53 100 107 128 307 57 145 175 168 175 193 163 150 162 173
353 349 348 345 333 323 333 152 222 206 304 224 242 270 281 282 316 225 148 154 143 155 108 44 207 205 173 157 132 126 122 73 113 157 216 129 156 179 164 197 194 148 159 165 160
352 349 344 341 329 325 300 268 290 313 2 303 193 201 213 149 203 224 144 150 143 151 133 160 237 169 157 134 126 138 174 170 144 138 73 85 88 183 218 140 263 197 173 169 161
348 345 337 340 321 319 282 333 328 227 51 293 283 274 165 142 285 178 170 143 184 186 156 231 224 150 130 212 136 186 191 185 148 134 164 230 201 241 197 217 189 218 174 174 167
339 332 325 320 293 263 307 329 336 114 50 333 281 2 94 142 148 251 161 76 160 152 110 242 182 180 187 213 152 220 174 177 160 111 112 246 115 175 146 211 189 198 162 168 168
334 325 314 310 285 281 327 336 99 34 32 338 350 349 37 321 31 74 131 61 138 146 0 221 232 162 211 229 175 156 93 45 57 91 164 198 154 235 190 196 185 182 157 152 159
328 316 294 252 239 258 330 13 41 96 335 342 322 352 345 272 44 117 162 152 141 86 322 328 269 231 176 247 28 120 88 30 35 324 223 170 149 223 285 228 178 187 152 167 155
331 311 277 256 241 255 354 50 65 280 285 288 313 335 64 13 42 7 114 100 231 109 119 179 324 173 179 182 183 179 155 153 175 193 271 104 229 314 327 215 207 148 156 118 160
333 300 269 270 212 160 72 54 201 224 259 302 330 50 352 347 85 69 35 74 39 87 145 179 268 284 189 173 149 183 146 192 115 350 89 202 322 156 53 75 121 107 99 97 131
331 304 256 160 134 87 66 215 197 223 276 357 47 44 57 346 51 52 31 307 339 145 169 265 268 269 276 149 60 154 162 78 18 133 124 273 247 248 164 129 102 96 97 92 66
340 9 11 157 129 54 130 227 248 241 205 207 9 53 47 75 61 51 315 273 13 325 43 191 134 282 308 126 171 61 97 57 112 118 146 140 254 229 168 119 115 103 96 101 84
357 34 98 141 56 42 146 203 304 294 85 295 100 92 111 78 64 39 214 241 11 330 28 17 141 161 252 283 265 287 163 134 120 225 59 117 226 55 115 129 126 114 98 77 69
35 262 150 359 77 211 254 284 223 306 294 14 74 146 187 147 100 196 268 269 289 352 43 330 23 32 339 4 4 49 337 99 109 95 186 123 192 133 143 144 136 138 124 107 92
95 55 332 46 62 138 129 180 55 14 56 349 31 60 77 40 26 180 273 278 325 340 106 85 62 126 145 253 262 333 304 197 117 124 148 197 143 175 180 147 116 114 109 98 96
46 306 179 329 347 79 79 47 63 17 21 24 20 35 51 81 47 13 354 345 336 1 46 99 126 166 193 278 248 240 299 180 137 167 145 172 168 185 172 153 142 130 130 111 106
76 46 1 306 290 85 16 4 56 25 33 352 66 23 52 63 346 61 334 20 341 326 355 15 180 122 12 341 347 38 19 9 91 108 51 145 123 162 142 129 140 136 127 111 102
355 26 108 311 30 71 258 164 65 123 356 41 176 92 23 79 253 244 224 254 214 146 270 44 115 80 298 284 355 22 343 323 10 281 139 157 181 154 146 152 155 145 135 119 108